Theta_e
334 335 336 336 333 336 346 349 347 343 334 330 328 325 323 322 322 323 321 320 318 314 314 309 308 307 305 305 306 304 304 303 304 304 304 304 303 301 299 300 302 302 303
336 337 336 337 335 341 349 349 347 344 335 331 327 325 324 324 324 324 324 320 318 316 314 310 307 305 306 304 302 302 301 300 300 302 302 301 298 301 301 301 300 301 302
338 338 337 336 333 343 348 345 348 345 336 329 326 325 325 325 324 325 324 320 317 316 312 310 305 304 301 300 301 300 298 298 299 300 299 299 301 301 301 301 301 301 301
340 339 338 336 332 333 338 343 347 345 335 328 327 325 325 325 325 326 324 319 317 315 311 308 304 303 301 298 298 297 299 300 301 300 300 301 301 301 301 301 300 301 300
341 340 339 336 333 334 339 346 345 340 331 329 327 326 326 326 327 327 324 317 316 312 310 306 304 304 300 297 297 298 300 302 302 298 300 300 300 301 301 300 301 301 301
342 341 339 335 335 343 346 347 343 335 331 329 328 327 327 328 328 328 323 317 314 312 306 306 306 305 299 297 297 298 301 301 298 299 299 300 301 301 301 301 301 302 302
343 341 340 335 337 345 346 345 342 336 332 331 331 329 328 328 328 328 319 314 312 309 305 307 305 305 298 297 297 299 300 298 299 299 300 300 301 301 301 302 302 302 302
340 342 339 335 339 344 342 340 337 333 332 334 333 330 328 328 329 323 316 314 311 308 306 304 304 303 297 296 296 299 298 299 300 300 300 299 301 301 301 302 302 302 301
340 340 339 335 342 343 340 338 336 335 337 335 333 331 329 330 325 319 314 312 307 307 305 306 305 301 297 296 296 297 300 300 300 300 300 300 301 302 301 302 302 302 301
343 340 340 342 342 341 340 339 330 339 338 335 332 331 330 329 319 314 312 308 311 307 304 303 305 300 297 296 296 299 300 301 301 300 300 300 300 301 302 302 302 301 301
344 344 342 345 343 342 337 328 337 340 338 335 332 331 330 325 318 313 315 315 313 308 302 301 301 302 296 296 298 300 301 301 300 300 300 301 301 301 302 302 302 302 301
339 342 343 343 344 341 334 337 338 339 336 334 332 328 320 318 317 314 316 314 313 308 301 302 304 303 296 298 299 300 300 300 301 301 301 301 302 302 302 302 302 301 302
328 332 332 338 342 339 339 338 338 338 336 333 330 327 318 314 315 316 315 314 309 302 302 304 306 305 297 299 300 300 301 301 301 301 301 302 302 303 302 302 301 301 302
326 330 331 340 340 339 338 337 336 334 331 330 327 320 316 313 314 312 312 307 304 302 305 306 306 306 298 300 302 301 301 302 302 303 302 302 302 302 302 301 301 302 303
323 324 327 336 336 337 336 334 332 331 330 329 328 327 320 314 316 315 315 306 303 304 306 307 307 307 299 302 302 302 302 303 303 303 302 302 302 302 300 301 302 303 303
322 324 330 330 331 331 332 331 328 329 328 328 326 326 319 318 317 314 311 304 302 306 306 306 306 305 298 302 302 303 304 304 304 303 303 303 303 303 302 303 303 304 304
324 323 326 326 329 329 325 325 325 321 321 321 324 321 319 321 316 313 307 302 305 306 306 305 304 301 297 300 303 304 304 304 304 304 304 303 303 303 303 303 304 304 304
322 322 324 326 326 327 326 327 325 323 317 313 315 317 318 315 313 308 301 301 305 305 305 304 302 300 301 303 304 304 304 303 303 303 304 303 303 302 303 304 304 304 304
323 322 325 325 325 324 325 324 323 320 318 315 314 313 314 311 308 305 301 299 303 305 304 304 304 300 300 303 304 304 303 303 303 303 303 303 303 303 303 304 304 304 304
321 321 323 323 323 321 319 320 321 318 317 316 314 313 310 307 307 303 300 299 304 306 304 298 299 300 300 304 304 304 304 304 304 304 303 303 304 303 303 304 304 304 303
320 320 321 321 319 319 319 319 318 317 317 316 314 312 310 307 305 300 298 298 301 304 302 298 298 300 299 303 305 305 305 304 304 304 304 304 302 303 304 304 304 304 304
320 320 318 319 319 317 317 317 316 315 315 313 312 311 309 307 302 302 303 302 299 298 297 298 302 302 301 301 304 305 304 304 304 304 304 304 303 303 303 303 304 304 305
320 318 318 316 317 314 314 314 315 314 313 313 312 310 307 305 303 305 304 304 300 300 301 302 302 301 299 299 303 303 304 304 304 304 304 304 304 304 304 303 303 305 305
318 318 318 316 316 313 313 314 315 314 313 311 310 309 306 305 306 305 304 304 304 304 303 303 303 302 299 297 297 302 303 304 305 304 304 304 304 304 303 303 303 304 305
317 317 317 316 315 313 313 314 312 312 310 310 309 305 304 305 304 303 303 303 303 303 303 302 301 300 300 299 297 299 302 304 304 304 303 303 303 303 303 304 304 305 305
316 316 315 315 314 314 314 313 312 309 309 308 304 303 303 304 303 303 303 302 303 303 303 302 302 302 302 301 298 299 302 303 304 303 304 304 304 304 304 305 305 304 305
Wind_Speed
58 59 60 44 33 38 39 40 36 29 29 31 31 30 30 30 28 23 19 17 14 11 8 7 5 6 5 3 3 3 3 1 4 4 2 5 11 15 15 12 13 14 14
55 58 56 46 35 38 41 39 37 31 31 32 33 31 30 31 27 24 22 21 18 14 11 8 6 9 7 4 4 4 3 2 2 4 2 5 6 8 12 12 14 13 15
55 56 50 42 36 39 43 41 36 33 34 35 37 34 33 31 27 25 23 23 20 17 13 10 9 10 8 6 5 4 4 4 3 4 3 6 6 8 12 13 14 12 13
56 58 52 39 40 41 44 41 38 37 36 38 39 35 33 31 28 29 28 29 24 19 16 13 12 9 7 6 5 4 5 5 5 4 7 7 6 10 14 16 15 14 15
58 59 54 44 41 40 40 37 34 37 39 37 37 35 35 34 33 35 33 33 27 22 17 16 14 10 7 6 6 6 6 5 4 5 8 7 8 11 15 15 14 14 16
59 60 53 46 40 36 33 32 35 37 37 36 37 38 40 39 36 38 38 36 28 25 22 20 15 11 8 7 6 6 6 5 6 10 9 8 8 11 14 15 15 18 20
60 61 55 46 40 34 31 32 36 37 37 39 38 39 39 39 40 44 39 30 27 20 20 20 15 13 8 7 8 6 5 6 10 9 8 7 9 10 11 13 16 17 18
59 61 55 48 41 37 36 34 36 37 38 38 38 39 41 44 45 44 38 32 27 23 21 19 16 13 9 8 9 8 8 11 9 7 7 6 6 8 8 12 14 18 17
62 63 61 52 45 39 35 36 33 38 38 39 39 41 44 47 50 43 37 32 28 24 25 19 16 11 9 9 11 11 14 10 7 7 5 5 5 7 7 9 13 19 19
57 64 64 54 47 43 41 27 25 42 42 43 41 40 44 50 43 39 34 29 25 26 20 22 19 12 10 12 13 17 14 10 9 5 4 5 3 3 6 8 13 15 20
35 44 53 60 49 38 29 32 39 42 43 41 41 42 46 51 45 38 24 23 24 24 26 25 22 15 12 15 17 17 14 11 7 6 8 10 5 5 4 7 10 13 17
28 29 55 62 49 43 38 36 41 39 42 41 43 46 45 46 42 31 23 26 18 25 29 27 21 15 14 17 19 18 14 10 8 10 10 8 5 5 6 6 11 14 17
34 28 43 54 39 37 35 36 40 42 42 42 45 46 48 45 38 33 29 24 23 25 31 27 21 16 15 18 19 18 16 13 11 9 8 4 4 4 8 9 11 13 16
17 26 45 48 33 37 36 36 40 41 41 41 46 47 47 47 39 40 32 28 28 32 32 29 24 19 16 21 20 19 17 14 11 8 7 1 3 7 8 10 11 16 17
9 20 14 22 31 31 31 32 32 33 32 37 43 43 50 43 40 38 34 39 37 35 31 29 28 26 24 25 23 21 18 14 10 6 6 3 3 7 5 7 11 13 17
12 19 20 17 24 28 30 31 32 28 24 28 21 34 44 41 39 38 34 37 37 34 31 29 31 29 27 28 24 22 18 14 11 7 4 5 5 5 7 7 9 13 18
11 12 18 23 24 28 30 31 30 29 29 32 28 25 32 26 31 30 34 35 35 31 31 31 28 26 28 28 25 21 17 14 13 13 10 9 8 7 8 10 13 15 17
9 12 15 24 26 28 28 28 28 29 30 29 25 26 28 25 23 29 32 36 38 33 34 32 27 26 27 28 24 19 16 14 12 11 13 13 9 9 10 12 16 19 17
13 15 19 23 26 26 24 28 26 27 25 29 31 32 24 22 23 24 33 39 42 37 35 33 29 27 29 26 22 18 18 15 12 10 12 13 13 12 12 15 17 14 16
17 17 20 21 24 26 27 24 23 27 26 30 33 32 31 30 29 33 36 38 42 38 34 30 29 28 28 27 23 20 18 18 15 13 14 15 16 15 15 16 16 14 16
19 16 12 14 19 21 23 23 23 24 27 31 34 37 31 31 30 33 34 35 38 39 35 30 27 27 28 29 26 22 20 20 20 16 13 13 13 16 16 15 15 12 13
21 17 14 15 20 25 24 23 23 24 27 29 29 27 23 25 30 32 29 30 32 33 30 28 24 26 27 30 30 25 22 21 22 22 22 19 17 18 18 18 18 15 17
19 14 16 19 16 20 19 20 19 19 20 22 25 21 24 28 31 28 27 28 27 27 26 25 25 25 26 28 31 28 26 24 24 25 22 24 24 25 22 20 20 19 17
13 9 15 17 12 13 16 17 15 16 24 24 22 20 26 27 28 26 25 26 27 25 23 24 27 25 24 26 31 34 31 27 23 21 21 22 22 22 22 21 22 22 20
5 7 9 8 11 13 14 14 16 20 23 22 18 19 23 24 24 24 25 25 23 22 23 22 22 24 24 25 28 34 32 26 24 23 21 20 20 21 21 22 24 26 22
3 3 3 3 7 11 12 14 14 20 25 22 21 19 19 20 17 14 16 17 19 19 19 20 21 20 18 18 22 33 34 33 30 25 24 24 24 24 25 26 27 29 28
Wind_Direction
224 224 232 247 248 238 230 235 244 230 221 217 218 215 214 213 214 216 218 219 218 225 236 243 261 263 243 214 209 237 257 226 150 169 218 304 325 334 349 9 11 11 7
226 224 232 244 249 233 228 233 240 230 223 220 220 217 215 215 215 217 218 217 216 225 231 227 243 233 227 223 164 152 175 186 164 180 269 321 344 30 18 16 16 10 15
221 225 230 243 244 230 229 235 235 231 223 218 221 219 218 216 216 218 220 215 218 223 221 224 217 212 209 190 180 174 175 166 145 135 81 84 66 29 14 14 6 21 29
222 223 229 241 236 228 230 231 233 227 220 216 219 221 222 220 220 220 218 212 215 216 209 209 199 186 185 179 177 165 156 145 147 112 108 95 54 31 16 8 20 29 30
223 224 229 235 229 228 226 228 231 219 218 219 220 220 222 223 222 220 217 209 214 203 206 195 180 178 173 172 177 173 176 179 150 118 122 98 67 33 23 22 29 28 21
225 225 229 231 226 223 222 225 219 215 219 221 222 223 221 222 226 228 215 208 203 199 193 191 177 176 174 174 175 176 168 164 150 139 117 95 59 45 47 39 24 18 10
227 226 229 228 224 218 218 219 217 218 220 222 225 228 226 227 229 222 206 202 194 187 198 189 177 181 176 168 180 171 167 157 141 135 102 87 66 46 41 21 15 13 3
229 227 227 226 222 217 210 211 217 218 222 224 228 229 227 227 224 213 198 188 194 182 188 202 184 175 174 173 177 178 168 151 141 119 103 70 71 42 36 15 8 4 356
228 228 226 222 214 212 211 207 218 227 225 225 227 228 225 223 213 205 190 187 186 176 191 198 180 181 174 179 180 172 163 156 131 111 86 83 61 42 24 11 3 0 0
246 233 225 214 210 208 203 198 209 229 226 224 223 225 226 219 206 193 184 180 186 191 185 191 181 183 187 177 174 169 163 154 137 141 115 102 71 35 18 3 3 8 5
251 240 232 211 205 202 197 211 219 218 223 222 222 225 223 215 200 190 178 199 195 189 182 180 172 179 180 172 171 169 173 165 158 138 110 93 74 87 19 353 1 2 359
263 270 236 224 195 197 204 211 216 216 218 217 219 216 210 204 204 180 187 201 205 196 186 176 168 172 174 173 173 176 178 164 146 133 121 113 114 41 27 7 359 356 358
285 280 249 202 193 200 205 210 213 214 215 216 215 214 203 194 189 191 189 202 193 186 185 176 179 178 173 176 172 177 171 160 147 136 114 84 30 353 342 333 336 350 357
292 283 205 214 199 203 206 212 214 208 208 211 212 208 197 189 188 199 192 187 183 191 191 185 184 182 183 181 179 175 170 163 156 136 103 156 324 344 326 328 337 350 349
15 320 193 183 204 201 204 209 214 213 212 215 216 214 207 192 196 202 201 184 185 194 196 194 194 192 189 185 181 178 175 174 170 146 98 230 298 337 347 327 335 352 353
37 312 294 230 208 199 198 199 208 213 216 222 229 234 206 205 197 202 200 186 187 193 196 202 195 193 193 190 190 190 189 196 200 194 196 243 264 316 324 329 339 345 342
345 311 282 239 221 211 201 200 204 205 216 221 226 222 201 211 203 205 191 184 191 194 193 190 192 199 197 193 192 198 206 215 231 234 232 245 260 278 293 307 320 328 342
264 276 267 256 230 215 207 205 207 203 195 199 211 209 200 203 199 188 185 188 193 201 199 196 195 195 190 193 201 211 214 216 226 233 236 247 272 270 275 296 307 313 327
243 247 246 241 236 228 221 212 206 202 197 198 193 196 200 191 182 190 194 198 197 203 207 206 203 200 201 206 209 213 214 220 232 239 256 262 261 268 270 294 302 313 324
235 225 233 239 237 230 221 210 210 205 201 200 194 193 186 183 190 193 195 198 200 208 216 216 211 210 207 211 213 217 221 225 232 243 259 268 265 260 266 291 294 305 318
235 229 232 239 234 229 222 217 213 210 203 202 200 196 194 191 196 193 193 197 205 215 219 218 211 212 212 215 220 222 229 235 237 239 257 263 261 252 272 278 286 307 323
240 232 242 236 231 224 218 214 209 210 209 207 201 194 197 208 202 196 199 208 214 216 214 214 220 218 219 220 222 225 233 238 237 244 255 253 260 266 266 278 282 289 300
233 231 239 217 225 226 221 214 213 213 207 198 196 197 202 203 198 204 212 217 216 213 214 217 222 226 228 228 224 227 234 238 241 251 256 254 257 269 273 276 272 284 291
236 239 231 213 213 219 209 208 215 211 206 204 204 208 197 198 205 209 218 218 220 226 230 232 234 237 240 231 230 228 236 240 244 245 249 256 263 269 266 266 269 283 283
204 223 196 210 202 205 215 222 219 220 213 209 211 197 198 206 214 224 231 223 226 232 236 241 244 244 243 240 233 228 232 233 236 248 254 261 266 266 263 265 270 277 283
63 140 162 237 244 231 209 214 223 220 206 196 185 178 198 198 221 236 238 237 244 247 251 246 239 233 233 237 238 229 231 237 246 251 253 259 263 265 265 269 274 281 277